FW1697 Weather Reports


time (UTC)temp
C
wind
direction
speed
KPH
gust
KPH
rain 1hr
cm
rain 24hr
cm
rain mn
cm
humidity
%
barometer
mb
20260507171207 11 195 12.9 19.3 0.00 0.00 0.00 65 1014.6
20260507165707 11 198 9.7 19.3 0.00 0.00 0.00 66 1014.7
20260507165208 11 206 9.7 20.9 0.00 0.00 0.00 66 1014.7
20260507164708 11 192 9.7 19.3 0.00 0.00 0.00 66 1014.8
20260507164206 11 198 14.5 19.3 0.00 0.00 0.00 66 1014.8
20260507163707 11 200 11.3 19.3 0.00 0.00 0.00 66 1014.7
20260507163208 11 209 11.3 16.1 0.00 0.00 0.00 66 1014.7
20260507162707 11 194 8.0 14.5 0.00 0.00 0.00 66 1014.7
20260507162208 11 210 11.3 19.3 0.00 0.00 0.00 65 1014.7
20260507161707 11 197 11.3 19.3 0.00 0.00 0.00 65 1014.7
20260507161206 11 193 8.0 16.1 0.00 0.00 0.00 67 1014.7
20260507160707 11 201 9.7 16.1 0.00 0.00 0.00 66 1014.8
20260507160207 11 202 11.3 27.4 0.00 0.00 0.00 66 1014.8
20260507154707 11 197 14.5 24.1 0.00 0.00 0.00 66 1014.8
20260507153707 11 191 9.7 19.3 0.00 0.00 0.00 67 1014.9
20260507153207 11 207 14.5 20.9 0.00 0.00 0.00 67 1014.9
20260507152706 11 191 16.1 20.9 0.00 0.00 0.00 67 1014.9
20260507152207 11 208 12.9 19.3 0.00 0.00 0.00 68 1015.0
20260507151706 11 195 12.9 19.3 0.00 0.00 0.00 68 1014.9
20260507151207 11 207 16.1 24.1 0.00 0.00 0.00 69 1015.0
20260507150708 10 214 11.3 24.1 0.00 0.00 0.00 70 1015.0
20260507150207 10 191 16.1 24.1 0.00 0.00 0.00 69 1015.0
20260507145707 10 219 12.9 25.7 0.00 0.00 0.00 68 1015.0
20260507145206 10 199 22.5 27.4 0.00 0.00 0.00 68 1014.9
20260507144706 10 201 11.3 22.5 0.00 0.00 0.00 70 1014.9
20260507143706 10 209 16.1 27.4 0.00 0.00 0.00 70 1014.9
20260507143206 10 203 20.9 35.4 0.00 0.00 0.00 69 1015.0
20260507142706 10 199 16.1 25.7 0.00 0.00 0.00 70 1015.0
20260507142207 10 212 16.1 24.1 0.00 0.00 0.00 69 1015.0
20260507141707 10 204 14.5 22.5 0.00 0.00 0.00 70 1015.1
20260507141207 10 206 19.3 29.0 0.00 0.00 0.00 69 1015.1
20260507140707 10 229 16.1 29.0 0.00 0.00 0.00 68 1015.1
20260507140206 10 212 16.1 24.1 0.00 0.00 0.00 69 1015.2
20260507135707 10 200 19.3 29.0 0.00 0.00 0.00 69 1015.3
20260507135207 10 200 17.7 27.4 0.00 0.00 0.00 70 1015.3
20260507134207 10 219 11.3 25.7 0.00 0.00 0.00 69 1015.3
20260507133707 10 224 16.1 33.8 0.00 0.00 0.00 68 1015.3
20260507133207 10 204 14.5 32.2 0.00 0.00 0.00 70 1015.3
20260507132707 10 221 16.1 35.4 0.00 0.00 0.00 68 1015.3
20260507131207 11 202 17.7 25.7 0.00 0.00 0.00 69 1015.3
20260507130707 11 225 20.9 32.2 0.00 0.00 0.00 69 1015.3
20260507130207 11 209 17.7 29.0 0.00 0.00 0.00 70 1015.3
20260507125707 11 209 19.3 32.2 0.00 0.00 0.00 69 1015.3
20260507125207 11 190 17.7 32.2 0.00 0.00 0.00 70 1015.3
20260507124707 11 190 22.5 32.2 0.00 0.00 0.00 69 1015.3
20260507124207 11 206 16.1 27.4 0.00 0.00 0.00 71 1015.2
20260507123707 11 196 22.5 35.4 0.00 0.00 0.00 70 1015.2
20260507123207 11 206 20.9 33.8 0.00 0.00 0.00 71 1015.2
20260507122707 11 207 22.5 38.6 0.00 0.00 0.00 70 1015.2
20260507122207 11 226 19.3 32.2 0.00 0.00 0.00 70 1015.2
20260507121707 11 200 19.3 32.2 0.00 0.00 0.00 71 1015.2
20260507120707 11 203 19.3 33.8 0.00 0.00 0.00 72 1015.2
20260507120207 11 188 25.7 33.8 0.00 0.00 0.00 74 1015.3
20260507115707 10 204 17.7 25.7 0.00 0.00 0.00 74 1015.3
20260507115207 10 203 20.9 41.8 0.00 0.00 0.00 72 1015.3
20260507114707 10 201 22.5 38.6 0.00 0.00 0.00 73 1015.2
20260507114206 10 207 20.9 33.8 0.00 0.00 0.00 73 1015.2
20260507113707 10 194 24.1 35.4 0.00 0.00 0.00 74 1015.3
20260507113207 10 195 20.9 32.2 0.00 0.00 0.00 74 1015.3
20260507112707 10 190 22.5 35.4 0.00 0.00 0.00 75 1015.4
20260507112207 10 196 17.7 29.0 0.00 0.00 0.00 75 1015.4
20260507111707 10 205 14.5 25.7 0.00 0.00 0.00 76 1015.5
20260507111206 9 217 16.1 27.4 0.00 0.00 0.00 78 1015.6
20260507110707 9 222 19.3 32.2 0.00 0.00 0.00 78 1015.6
20260507110207 9 198 20.9 32.2 0.00 0.00 0.00 77 1015.6
20260507105707 9 213 17.7 32.2 0.00 0.00 0.00 79 1015.6
20260507105207 8 208 14.5 24.1 0.00 0.00 0.00 79 1015.6
20260507104706 8 201 16.1 27.4 0.00 0.00 0.00 79 1015.6
20260507104207 8 196 16.1 25.7 0.00 0.00 0.00 80 1015.7
20260507103207 8 201 19.3 27.4 0.00 0.00 0.00 79 1015.7
20260507102207 8 196 17.7 27.4 0.00 0.00 0.00 80 1015.8
20260507101707 8 192 12.9 25.7 0.00 0.00 0.00 80 1015.8
20260507101206 8 203 17.7 25.7 0.00 0.00 0.00 80 1015.9
20260507100707 8 204 19.3 33.8 0.00 0.00 0.00 79 1015.8
20260507100207 8 191 17.7 27.4 0.00 0.00 0.00 80 1015.8
20260507095207 8 192 20.9 29.0 0.00 0.00 0.00 80 1015.8
20260507094207 8 200 22.5 35.4 0.00 0.00 0.00 81 1015.7
20260507093707 8 206 14.5 27.4 0.00 0.00 0.00 81 1015.8
20260507093207 8 212 19.3 29.0 0.00 0.00 0.00 82 1015.8
20260507092707 7 208 22.5 38.6 0.00 0.00 0.00 81 1015.7
20260507092206 7 200 17.7 35.4 0.00 0.00 0.00 83 1015.7
20260507091707 7 196 19.3 35.4 0.00 0.00 0.00 82 1015.8
20260507091207 7 207 19.3 38.6 0.00 0.00 0.00 82 1015.8
20260507090707 7 200 16.1 27.4 0.00 0.00 0.00 83 1015.7
20260507090207 7 209 19.3 32.2 0.00 0.00 0.00 83 1015.7
20260507085706 7 206 22.5 32.2 0.00 0.00 0.00 83 1015.7
20260507085206 7 209 16.1 32.2 0.00 0.00 0.00 84 1015.7
20260507084707 7 214 16.1 32.2 0.00 0.00 0.00 83 1015.8
20260507084206 7 203 20.9 35.4 0.00 0.00 0.00 83 1015.8
20260507083707 7 212 16.1 27.4 0.00 0.00 0.00 83 1015.9
20260507082707 7 204 16.1 24.1 0.00 0.00 0.00 83 1015.9
20260507081207 6 208 14.5 22.5 0.00 0.00 0.00 84 1015.9
20260507080707 6 206 14.5 24.1 0.00 0.00 0.00 85 1015.8
20260507080206 6 221 16.1 27.4 0.00 0.00 0.00 85 1015.8
20260507075707 6 207 19.3 32.2 0.00 0.00 0.00 85 1015.8
20260507075206 6 205 14.5 29.0 0.00 0.00 0.00 86 1015.8
20260507074707 6 220 14.5 29.0 0.00 0.00 0.00 86 1015.8
20260507073707 6 214 12.9 22.5 0.00 0.00 0.00 86 1015.8
20260507073208 6 208 14.5 22.5 0.00 0.00 0.00 86 1015.8
20260507072707 6 222 12.9 27.4 0.00 0.00 0.00 86 1015.8
20260507072207 6 203 11.3 20.9 0.00 0.00 0.00 86 1015.8
20260507071706 6 206 11.3 22.5 0.00 0.00 0.00 86 1015.8
20260507071207 6 200 12.9 22.5 0.00 0.00 0.00 87 1015.8
20260507070707 6 207 12.9 25.7 0.00 0.00 0.00 87 1015.9
20260507070207 6 205 14.5 20.9 0.00 0.00 0.00 87 1015.8
20260507065708 6 211 14.5 25.7 0.00 0.00 0.00 87 1015.8
20260507065206 6 217 11.3 25.7 0.00 0.00 0.00 88 1015.8
20260507064706 5 217 12.9 25.7 0.00 0.00 0.00 88 1015.8
20260507064206 5 205 11.3 20.9 0.00 0.00 0.00 89 1015.8
20260507063707 5 222 9.7 20.9 0.00 0.00 0.00 89 1015.7
20260507062706 5 206 8.0 19.3 0.00 0.00 0.00 90 1015.8
20260507062206 5 207 11.3 20.9 0.00 0.00 0.00 91 1015.8
20260507061706 5 211 11.3 19.3 0.00 0.00 0.00 93 1015.8
20260507061206 4 215 9.7 16.1 0.00 0.00 0.00 94 1015.7
20260507060707 3 249 3.2 12.9 0.00 0.00 0.00 94 1015.7
20260507060206 3 210 3.2 4.8 0.00 0.00 0.00 93 1015.7
20260507055206 3 236 3.2 8.0 0.00 0.00 0.00 93 1015.7
20260507054207 2 212 3.2 12.9 0.00 0.00 0.00 94 1015.7
20260507053707 2 221 8.0 11.3 0.00 0.00 0.00 94 1015.7
20260507052706 2 221 3.2 8.0 0.00 0.00 0.00 94 1015.6
20260507052206 1 213 1.6 8.0 0.00 0.00 0.00 94 1015.6
20260507051708 1 221 1.6 4.8 0.00 0.00 0.00 93 1015.6
20260507051207 1 217 0.0 3.2 0.00 0.00 0.00 94 1015.6
20260507050706 1 219 1.6 3.2 0.00 0.00 0.00 93 1015.6
20260507050206 1 224 1.6 4.8 0.00 0.00 0.00 94 1015.6
20260507045707 0 210 0.0 3.2 0.00 0.00 0.00 93 1015.6
20260507044707 0 218 0.0 4.8 0.00 0.00 0.00 93 1015.6
20260507044206 0 246 1.6 3.2 0.00 0.00 0.00 92 1015.7
20260507043707 0 214 0.0 1.6 0.00 0.00 0.00 92 1015.6
20260507043207 0 215 0.0 1.6 0.00 0.00 0.00 92 1015.6
20260507042206 0 200 0.0 3.2 0.00 0.00 0.00 92 1015.5
20260507041207 0 232 0.0 3.2 0.00 0.00 0.00 92 1015.5
20260507040707 0 248 0.0 3.2 0.00 0.00 0.00 92 1015.6
20260507040207 0 262 0.0 1.6 0.00 0.00 0.00 92 1015.5
20260507035707 0 259 0.0 3.2 0.00 0.00 0.00 92 1015.5
20260507034706 0 191 1.6 3.2 0.00 0.00 0.00 92 1015.6
20260507034207 0 197 0.0 1.6 0.00 0.00 0.00 92 1015.6
20260507033707 0 211 0.0 1.6 0.00 0.00 0.00 92 1015.7
20260507033206 0 212 0.0 1.6 0.00 0.00 0.00 92 1015.7
20260507032207 0 213 0.0 3.2 0.00 0.00 0.00 92 1015.7
20260507031707 0 220 0.0 1.6 0.00 0.00 0.00 92 1015.7
20260507031207 0 220 0.0 3.2 0.00 0.00 0.00 91 1015.7
20260507030706 0 220 0.0 1.6 0.00 0.00 0.00 91 1015.8
20260507030207 0 220 0.0 1.6 0.00 0.00 0.00 91 1015.8
20260507025207 0 220 1.6 3.2 0.00 0.00 0.00 92 1015.8
20260507024707 0 220 1.6 3.2 0.00 0.00 0.00 92 1015.8
20260507024206 0 221 0.0 3.2 0.00 0.00 0.00 91 1015.8
20260507023706 0 224 0.0 0.0 0.00 0.00 0.00 91 1015.8
20260507023207 0 224 0.0 1.6 0.00 0.00 0.00 91 1015.8
20260507022707 0 222 0.0 1.6 0.00 0.00 0.00 91 1015.8
20260507022207 0 223 0.0 1.6 0.00 0.00 0.00 91 1015.8
20260507021707 0 224 0.0 1.6 0.00 0.00 0.00 90 1015.8
20260507021207 0 224 0.0 1.6 0.00 0.00 0.00 90 1015.8
20260507015707 0 222 0.0 1.6 0.00 0.00 0.00 90 1015.8
20260507015207 0 222 0.0 1.6 0.00 0.00 0.00 90 1015.9
20260507014206 0 223 0.0 1.6 0.00 0.00 0.00 90 1015.9
20260507013707 0 223 0.0 1.6 0.00 0.00 0.00 90 1015.9
20260507013207 1 223 0.0 1.6 0.00 0.00 0.00 90 1015.8
20260507012707 1 223 1.6 4.8 0.00 0.00 0.00 91 1015.9
20260507012207 0 220 1.6 4.8 0.00 0.00 0.00 90 1015.9
20260507011708 0 183 0.0 3.2 0.00 0.00 0.00 90 1016.0
20260507010707 0 179 0.0 1.6 0.00 0.00 0.00 89 1015.9
20260507005706 0 182 0.0 4.8 0.00 0.00 0.00 89 1016.0
20260507005206 1 187 1.6 4.8 0.00 0.00 0.00 90 1016.1
20260507004706 1 213 1.6 3.2 0.00 0.00 0.00 89 1016.0
20260507004207 1 219 1.6 3.2 0.00 0.00 0.00 89 1015.9
20260507003706 1 224 0.0 1.6 0.00 0.00 0.00 89 1015.9
20260507003207 1 224 0.0 1.6 0.00 0.00 0.00 90 1015.9
20260507002706 1 224 1.6 3.2 0.00 0.00 0.00 90 1015.9
20260507002207 1 227 1.6 3.2 0.00 0.00 0.00 90 1015.9
20260507001707 1 237 1.6 4.8 0.00 0.00 0.00 90 1016.0
20260507001207 1 190 0.0 1.6 0.00 0.00 0.00 91 1016.0
20260507000706 1 190 0.0 1.6 0.00 0.00 0.00 91 1016.0
20260506235706 0 190 0.0 3.2 0.00 0.00 0.00 88 1016.0
20260506235207 0 189 1.6 3.2 0.00 0.00 0.00 89 1016.1
20260506234707 1 189 0.0 3.2 0.00 0.00 0.00 90 1016.1
20260506234207 0 188 1.6 3.2 0.00 0.00 0.00 90 1016.1
20260506233707 0 186 0.0 1.6 0.00 0.00 0.00 90 1016.2
20260506233207 0 186 0.0 3.2 0.00 0.00 0.00 89 1016.2
20260506232206 0 184 0.0 1.6 0.00 0.00 0.00 89 1016.2
20260506231206 0 184 0.0 1.6 0.00 0.00 0.00 89 1016.2
20260506230714 1 184 1.6 3.2 0.00 0.00 0.00 90 1016.1
20260506230207 1 184 1.6 3.2 0.00 0.00 0.00 90 1016.1
20260506225707 0 184 1.6 3.2 0.00 0.00 0.00 90 1016.0
20260506225207 0 182 3.2 3.2 0.00 0.00 0.00 90 1016.2
20260506224706 0 181 1.6 3.2 0.00 0.00 0.00 89 1016.1
20260506223707 0 186 0.0 0.0 0.00 0.00 0.00 88 1016.2
20260506223207 0 186 0.0 1.6 0.00 0.00 0.00 88 1016.2
20260506222706 0 186 0.0 1.6 0.00 0.00 0.00 88 1016.2
20260506222207 0 186 0.0 1.6 0.00 0.00 0.00 87 1016.2
20260506221706 0 186 0.0 0.0 0.00 0.00 0.00 87 1016.2
20260506221207 0 186 0.0 0.0 0.00 0.00 0.00 87 1016.2
20260506220707 0 186 0.0 1.6 0.00 0.00 0.00 87 1016.2
20260506220206 0 186 3.2 4.8 0.00 0.00 0.00 87 1016.2
20260506215706 0 185 1.6 4.8 0.00 0.00 0.00 87 1016.2
20260506215207 0 176 0.0 3.2 0.00 0.00 0.00 86 1016.3
20260506214706 0 176 1.6 3.2 0.00 0.00 0.00 86 1016.2
20260506214206 0 180 0.0 1.6 0.00 0.00 0.00 86 1016.2
20260506213707 0 182 0.0 3.2 0.00 0.00 0.00 86 1016.2
20260506212707 0 182 0.0 3.2 0.00 0.00 0.00 85 1016.2
20260506212207 1 183 0.0 3.2 0.00 0.00 0.00 85 1016.2
20260506211707 1 183 0.0 1.6 0.00 0.00 0.00 85 1016.2
20260506211207 1 183 0.0 3.2 0.00 0.00 0.00 85 1016.1
20260506210706 1 180 1.6 4.8 0.00 0.00 0.00 85 1016.1
20260506210206 1 175 1.6 4.8 0.00 0.00 0.00 84 1016.1
20260506205707 1 191 1.6 3.2 0.00 0.00 0.00 84 1016.1
20260506205207 1 191 1.6 4.8 0.00 0.00 0.00 83 1016.1
20260506204706 1 181 4.8 8.0 0.00 0.00 0.00 83 1016.1
20260506204206 1 186 4.8 8.0 0.00 0.00 0.00 82 1016.2
20260506203707 1 186 3.2 4.8 0.00 0.00 0.00 82 1016.1
20260506203206 1 185 3.2 4.8 0.00 0.00 0.00 82 1016.1
20260506202708 1 181 1.6 3.2 0.00 0.00 0.00 81 1016.1
20260506202206 1 177 1.6 3.2 0.00 0.00 0.00 80 1016.1
20260506201705 2 174 3.2 8.0 0.00 0.00 0.00 80 1016.0
20260506201206 2 190 4.8 4.8 0.00 0.00 0.00 79 1016.0
20260506200707 2 177 4.8 4.8 0.00 0.00 0.00 79 1015.9
20260506200207 2 188 4.8 4.8 0.00 0.00 0.00 78 1015.9
20260506195707 2 194 1.6 4.8 0.00 0.00 0.00 76 1015.9
20260506195205 3 45 0.0 0.0 0.00 0.00 0.00 75 1015.9
20260506194706 3 45 0.0 0.0 0.00 0.00 0.00 74 1015.9
20260506194207 4 45 0.0 0.0 0.00 0.00 0.00 74 1015.9
20260506193706 5 45 0.0 0.0 0.00 0.00 0.00 74 1015.9
20260506193207 5 45 0.0 0.0 0.00 0.00 0.00 74 1015.8
20260506192206 5 45 0.0 0.0 0.00 0.00 0.00 74 1015.8
20260506191206 6 45 0.0 1.6 0.00 0.00 0.00 73 1015.7
20260506190707 6 45 0.0 3.2 0.00 0.00 0.00 72 1015.7
20260506185706 6 61 1.6 3.2 0.00 0.00 0.00 71 1015.7
20260506185206 6 44 1.6 3.2 0.00 0.00 0.00 71 1015.7
20260506184707 6 96 0.0 4.8 0.00 0.00 0.00 71 1015.6
20260506184206 6 93 1.6 4.8 0.00 0.00 0.00 70 1015.6
20260506183706 7 59 1.6 4.8 0.00 0.00 0.00 70 1015.6
20260506183207 7 107 3.2 9.7 0.00 0.00 0.00 70 1015.6
20260506182706 7 102 1.6 4.8 0.00 0.00 0.00 70 1015.5
20260506181707 7 80 1.6 4.8 0.00 0.00 0.00 70 1015.5
20260506181205 7 55 3.2 8.0 0.00 0.00 0.00 70 1015.6
20260506180706 7 86 3.2 4.8 0.00 0.00 0.00 70 1015.5
20260506180206 7 83 1.6 4.8 0.00 0.00 0.00 71 1015.6
20260506175706 7 95 1.6 4.8 0.00 0.00 0.00 72 1015.5
20260506175207 7 86 3.2 14.5 0.00 0.00 0.00 71 1015.5
20260506174206 7 63 3.2 8.0 0.00 0.00 0.00 72 1015.4
20260506173706 6 65 3.2 11.3 0.00 0.00 0.00 71 1015.5
20260506172707 7 63 3.2 4.8 0.00 0.00 0.00 70 1015.5
20260506172206 7 73 3.2 8.0 0.00 0.00 0.00 71 1015.5
20260506171705 7 78 1.6 4.8 0.00 0.00 0.00 70 1015.5